[[{"header":{"parameterUnit":"m.s-1","parameterCategory":1,"la1":30.2991,"la2":30.254,"lo1":-89.0895,"lo2":-89.0444,"dy":0.0017,"dx":0.0017,"nx":28,"ny":28,"refTime":"2025-09-08T21:00:00:Z","depth":0,"parameterNumber":2,"parameterNumberName":"U-component_of_WINDS"},"data":[0,0,0,0,0,0,0,0,0,0,0,0,0,0,0,0,0,0,0,0,0,0,0,0,0,0,0,0,0,0,0,0,0,0,0,0,0,0,0,0,0,0,0,0,0,0,0,0,0,0,0,0,0,0,0,0,0,0,-5.1759,-5.176,0,-5.1922,-5.1923,-5.1925,-5.1853,-5.1849,-5.1845,-5.1841,-5.2005,-5.2013,-5.2021,0,0,0,0,0,0,0,0,0,0,0,0,0,-5.1382,-5.139,-5.1758,-5.1761,-5.1763,-5.1921,-5.1924,-5.1926,-5.1854,-5.1849,-5.1844,-5.184,-5.2003,-5.2012,-5.2022,0,0,0,0,0,0,0,0,0,0,0,0,0,-5.1545,-5.1392,-5.1758,-5.1746,-5.1746,-5.1921,-5.1924,-5.1926,-5.1855,-5.1849,-5.1843,-5.1837,-5.1999,-5.2011,-5.2023,-5.2218,0,0,-5.206,-5.2065,0,0,0,0,0,0,0,0,-5.1536,-5.1559,-5.1746,-5.1747,-5.1748,-5.1861,-5.1851,-5.2024,-5.1856,-5.1814,-5.1841,-5.1834,-5.1962,-5.1977,-5.202,-5.2226,-5.2233,-5.2061,-5.2069,-5.2074,-5.2077,0,0,0,0,0,0,0,-5.1525,-5.1552,-5.1823,-5.1748,-5.175,-5.1731,-5.1748,-5.1883,-5.1919,-5.1817,-5.1812,-5.1833,-5.1961,-5.2009,-5.2024,-5.2235,-5.2061,-5.2072,-5.2079,-5.2084,-5.2609,-5.2615,0,0,0,0,0,0,-5.1514,-5.1543,-5.1818,-5.1828,-5.1625,-5.1743,-5.1762,-5.1831,-5.1918,-5.1925,-5.1837,-5.1829,-5.1991,-5.201,-5.2029,-5.2263,-5.2074,-5.2085,-5.2092,-5.2602,-5.261,-5.2618,0,0,0,0,0,0,-5.1506,-5.154,-5.1811,-5.1684,-5.1717,-5.1756,-5.1834,-5.1837,-5.1884,-5.1933,-5.1939,-5.188,-5.1987,-5.2012,-5.2172,-5.2267,-5.2091,-5.2102,-5.2594,-5.2605,-5.2614,-5.2732,0,0,0,0,0,0,-5.1496,-5.1537,-5.1612,-5.1687,-5.1725,-5.1952,-5.184,-5.1845,-5.1906,-5.1896,-5.1974,-5.1981,-5.1984,-5.2154,-5.2184,-5.2281,-5.2111,-5.2586,-5.2599,-5.2611,-5.272,-5.2745,-5.2766,0,0,0,0,0,-5.1483,-5.1638,-5.1616,-5.165,-5.1819,-5.1958,-5.1979,-5.198,-5.1914,-5.1989,-5.2021,-5.1979,-5.2253,-5.2171,-5.2204,-5.2306,-5.258,-5.2595,-5.261,-5.2709,-5.274,-5.2766,0,0,0,0,0,0,-5.1572,-5.1647,-5.1624,-5.1808,-5.1878,-5.1945,-5.204,-5.2013,-5.2101,-5.2088,-5.2084,-5.2103,-5.2268,-5.2303,-5.2211,-5.25,-5.2406,-5.2428,-5.247,-5.25,-5.2523,-5.251,-5.2121,0,0,0,0,0,-5.1614,-5.1721,-5.1781,-5.1937,-5.1973,-5.2001,-5.2062,-5.2057,-5.2128,-5.2156,-5.2199,-5.2269,-5.237,-5.2437,-5.2533,-5.2725,-5.274,-5.2812,-5.2835,-5.2854,-5.2872,-5.2976,-5.3008,-5.2667,-5.2667,-5.2666,0,0,-5.1699,-5.1754,-5.1822,-5.1957,-5.2009,-5.212,-5.2026,-5.2147,-5.2228,-5.2174,-5.2327,-5.2362,-5.2439,-5.2616,-5.2696,-5.265,-5.297,-5.2873,-5.2887,-5.2896,-5.2995,-5.3027,-5.3055,-5.2677,-5.2675,-5.2674,0,0,-5.1912,-5.1965,-5.2101,-5.2157,-5.2239,-5.2257,-5.229,-5.2363,-5.2384,-5.2538,-5.25,-5.2597,-5.2772,-5.2829,-5.2881,-5.3117,-5.3082,-5.3149,-5.327,-5.3371,-5.3397,-5.3421,-5.3505,-5.3535,-5.3168,-5.3168,-5.3168,0,-5.2008,-5.2174,-5.2174,-5.2299,-5.2359,-5.2317,-5.2454,-5.2508,-5.2617,-5.2659,-5.2607,-5.2826,-5.2876,-5.3065,-5.3123,-5.3167,-5.3203,-5.3139,-5.3394,-5.3418,-5.344,-5.3519,-5.3551,-5.3176,-5.3175,-5.3174,-5.3173,0,-5.2287,-5.2403,-5.2503,-5.2611,-5.2683,-5.2813,-5.2832,-5.2905,-5.2894,-5.2918,-5.3075,-5.3134,-5.3241,-5.3286,-5.3276,-5.3474,-5.3443,-5.3393,-5.3299,-5.348,-5.3554,-5.3585,-5.3186,-5.3184,-5.3181,-5.318,0,0,-5.2558,-5.2667,-5.2703,-5.2752,-5.284,-5.2929,-5.3057,-5.3164,-5.3225,-5.3303,-5.3409,-5.356,-5.3514,-5.3573,-5.357,-5.3659,-5.3842,-5.3598,-5.3599,-5.364,-5.4063,-5.4099,-5.4134,-5.382,-5.3826,-5.3831,-5.4056,0,-5.2776,-5.3003,-5.3008,-5.3214,-5.3321,-5.3284,-5.3395,-5.3461,-5.3487,-5.3581,-5.3608,-5.3715,-5.3647,-5.3682,-5.3769,-5.3801,-5.3926,-5.3785,-5.3918,-5.3923,-5.3898,-5.4173,-5.4211,-5.4421,-5.4085,-5.409,-5.4093,0,-5.3061,-5.3148,-5.3366,-5.344,-5.3485,-5.3586,-5.3684,-5.3774,-5.3848,-5.3861,-5.3928,-5.3912,-5.4042,-5.3946,-5.4125,-5.4029,-5.4084,-5.4108,-5.4116,-5.4127,-5.4017,-5.4189,-5.4488,-5.4518,-5.414,-5.4136,-5.4133,0,-5.3235,-5.3408,-5.356,-5.3603,-5.3694,-5.3765,-5.3806,-5.3874,-5.3938,-5.4024,-5.4065,-5.4165,-5.4219,-5.4296,-5.4307,-5.4236,-5.4487,-5.4391,-5.45,-5.45,-5.4552,-5.4548,-5.4862,-5.4591,-5.4591,-5.459,-5.4589,0,-5.3477,-5.3611,-5.364,-5.3734,-5.3883,-5.3888,-5.4035,-5.407,-5.4132,-5.4231,-5.4206,-5.4299,-5.4309,-5.4405,-5.4415,-5.4561,-5.4586,-5.4599,-5.4599,-5.46,-5.4598,-5.4634,-5.4619,-5.4598,-5.4597,-5.4595,-5.4594,0,-5.3695,-5.3721,-5.3884,-5.3957,-5.3979,-5.4086,-5.4148,-5.4237,-5.4261,-5.4387,-5.4417,-5.4454,-5.4566,-5.4585,-5.4717,-5.4724,-5.4898,-5.4885,-5.4873,-5.4871,-5.4978,-5.4967,-5.5323,-5.537,-5.5071,-5.5074,-5.5076,0,-5.3847,-5.395,-5.4035,-5.41,-5.4145,-5.425,-5.4316,-5.4325,-5.4394,-5.4487,-5.4565,-5.4675,-5.4763,-5.4944,-5.4982,-5.5083,-5.5071,-5.5189,-5.5085,-5.5083,-5.5071,-5.5064,-5.5073,-5.5208,-5.5211,-5.5214,-5.5216,0,-5.4113,-5.4121,-5.4217,-5.4319,-5.4398,-5.4478,-5.4553,-5.4608,-5.4627,-5.4706,-5.4821,-5.489,-5.5025,-5.5134,-5.5235,-5.5275,-5.5249,-5.5249,-5.5279,-5.528,-5.5268,-5.5274,-5.4926,-5.524,-5.5238,-5.5236,-5.5235,-5.5234,-5.4302,-5.4392,-5.4466,-5.4574,-5.4632,-5.4704,-5.4791,-5.4827,-5.4924,-5.5035,-5.5035,-5.5161,-5.5233,-5.5366,-5.5414,-5.5512,-5.5473,-5.5517,-5.5528,-5.5538,-5.5548,-5.5255,-5.553,-5.553,-5.5529,-5.5528,-5.5528,0,-5.4565,-5.4612,-5.4712,-5.4819,-5.4904,-5.4874,-5.4956,-5.5029,-5.5141,-5.5211,-5.5299,-5.5431,-5.5537,-5.5585,-5.5689,-5.5759,-5.5749,-5.5786,-5.5779,-5.5789,-5.5577,-5.5539,-5.5791,-5.5791,-5.5791,-5.5791,-5.5791,-5.5791,-5.4712,-5.4862,-5.4879,-5.5058,-5.5103,-5.5227,-5.5277,-5.5342,-5.5398,-5.5548,-5.5636,-5.5667,-5.5729,-5.5837,-5.5933,-5.5944,-5.5983,-5.6025,-5.6031,-5.5831,-5.5804,-5.5778,-5.5743,-5.6034,-5.6034,-5.6234,-5.6236,-5.6238]},{"header":{"parameterUnit":"m.s-1","parameterCategory":1,"la1":30.2991,"la2":30.254,"lo1":-89.0895,"lo2":-89.0444,"dy":0.0017,"dx":0.0017,"nx":28,"ny":28,"refTime":"2025-09-08T21:00:00:Z","depth":0,"parameterNumber":3,"parameterNumberName":"V-component_of_WINDS"},"data":[0,0,0,0,0,0,0,0,0,0,0,0,0,0,0,0,0,0,0,0,0,0,0,0,0,0,0,0,0,0,0,0,0,0,0,0,0,0,0,0,0,0,0,0,0,0,0,0,0,0,0,0,0,0,0,0,0,0,-1.8737,-1.8735,0,-1.8546,-1.8544,-1.8542,-1.8418,-1.8417,-1.8416,-1.8415,-1.8213,-1.8209,-1.8204,0,0,0,0,0,0,0,0,0,0,0,0,0,-1.8986,-1.8982,-1.8738,-1.8735,-1.8733,-1.8547,-1.8544,-1.8542,-1.8418,-1.8417,-1.8416,-1.8415,-1.8215,-1.8209,-1.8204,0,0,0,0,0,0,0,0,0,0,0,0,0,-1.8845,-1.8981,-1.8738,-1.8649,-1.8639,-1.8547,-1.8544,-1.8541,-1.8418,-1.8417,-1.8416,-1.8415,-1.8217,-1.821,-1.8203,-1.8183,0,0,-1.8182,-1.8179,0,0,0,0,0,0,0,0,-1.8853,-1.8836,-1.8664,-1.8655,-1.8644,-1.8505,-1.8558,-1.8421,-1.8418,-1.8502,-1.8415,-1.8414,-1.8311,-1.8296,-1.8263,-1.8174,-1.8165,-1.8181,-1.8177,-1.8174,-1.8172,0,0,0,0,0,0,0,-1.8863,-1.8843,-1.8662,-1.8662,-1.8649,-1.8615,-1.8594,-1.8531,-1.8415,-1.8494,-1.8485,-1.8464,-1.8305,-1.827,-1.8257,-1.8162,-1.8181,-1.8175,-1.8171,-1.8168,-1.8042,-1.8043,0,0,0,0,0,0,-1.8888,-1.8852,-1.8668,-1.8656,-1.8748,-1.8612,-1.8588,-1.855,-1.8415,-1.8394,-1.8466,-1.8459,-1.8282,-1.8265,-1.8249,-1.8215,-1.8174,-1.8167,-1.8163,-1.8041,-1.8042,-1.8043,0,0,0,0,0,0,-1.8894,-1.8873,-1.8675,-1.8751,-1.8724,-1.8609,-1.8568,-1.8547,-1.8512,-1.8394,-1.8371,-1.8452,-1.8281,-1.8259,-1.82,-1.8206,-1.8164,-1.8158,-1.804,-1.8042,-1.8043,-1.8148,0,0,0,0,0,0,-1.8902,-1.8876,-1.887,-1.8752,-1.872,-1.8633,-1.8568,-1.8544,-1.8501,-1.8491,-1.8375,-1.8354,-1.8278,-1.8211,-1.8193,-1.8196,-1.8152,-1.8039,-1.8041,-1.8043,-1.8143,-1.8152,-1.816,0,0,0,0,0,-1.8911,-1.8906,-1.887,-1.8848,-1.8711,-1.8633,-1.8615,-1.8529,-1.8502,-1.8493,-1.8416,-1.8358,-1.8208,-1.8206,-1.8185,-1.8186,-1.8039,-1.8041,-1.8042,-1.8139,-1.8151,-1.816,0,0,0,0,0,0,-1.9026,-1.8889,-1.8848,-1.8805,-1.8732,-1.8613,-1.8599,-1.8544,-1.8476,-1.8469,-1.8363,-1.8338,-1.8289,-1.8231,-1.8231,-1.8157,-1.8116,-1.8114,-1.8197,-1.8207,-1.8215,-1.823,-1.8147,0,0,0,0,0,-1.9046,-1.8998,-1.888,-1.8854,-1.8819,-1.8716,-1.8679,-1.8619,-1.8538,-1.8506,-1.8425,-1.8346,-1.8281,-1.824,-1.8174,-1.8133,-1.8104,-1.8123,-1.8131,-1.8139,-1.8138,-1.8109,-1.8115,-1.805,-1.805,-1.805,0,0,-1.9088,-1.9007,-1.8983,-1.8875,-1.8811,-1.876,-1.8691,-1.864,-1.86,-1.8497,-1.8437,-1.8374,-1.8279,-1.8229,-1.8202,-1.8179,-1.815,-1.8142,-1.8149,-1.8143,-1.8112,-1.8118,-1.8124,-1.8051,-1.8051,-1.8051,0,0,-1.9138,-1.9073,-1.9043,-1.898,-1.8885,-1.8815,-1.8808,-1.8696,-1.8651,-1.8589,-1.851,-1.8458,-1.835,-1.8284,-1.8237,-1.8258,-1.82,-1.8238,-1.8284,-1.8256,-1.8261,-1.8265,-1.8271,-1.8274,-1.8238,-1.8238,-1.8238,0,-1.9202,-1.9124,-1.9034,-1.8988,-1.8941,-1.8846,-1.8813,-1.8755,-1.8642,-1.8611,-1.8586,-1.8445,-1.8374,-1.8306,-1.8311,-1.8276,-1.8261,-1.8252,-1.8268,-1.8271,-1.8274,-1.8278,-1.828,-1.8244,-1.8243,-1.8242,-1.8242,0,-1.9206,-1.9153,-1.9139,-1.9034,-1.8985,-1.8946,-1.8846,-1.8807,-1.875,-1.8682,-1.8618,-1.8529,-1.8442,-1.8421,-1.8365,-1.8343,-1.8331,-1.8289,-1.8246,-1.8287,-1.8289,-1.829,-1.8251,-1.8249,-1.8248,-1.8246,0,0,-1.9326,-1.9169,-1.9166,-1.9115,-1.9001,-1.8957,-1.891,-1.8826,-1.8794,-1.8717,-1.8674,-1.8582,-1.8542,-1.8488,-1.8423,-1.8399,-1.8418,-1.8358,-1.8354,-1.8372,-1.8385,-1.8418,-1.8422,-1.8379,-1.8379,-1.8379,-1.8393,0,-1.9358,-1.9274,-1.919,-1.9134,-1.9082,-1.8989,-1.8948,-1.8872,-1.8806,-1.8749,-1.8675,-1.8611,-1.8563,-1.853,-1.8502,-1.8422,-1.8419,-1.842,-1.8335,-1.8333,-1.8362,-1.8423,-1.8458,-1.8476,-1.8393,-1.8393,-1.8393,0,-1.9386,-1.9315,-1.9255,-1.9143,-1.9118,-1.9083,-1.8997,-1.8946,-1.8855,-1.8808,-1.8747,-1.8677,-1.862,-1.8583,-1.8501,-1.8503,-1.8462,-1.8417,-1.8416,-1.8405,-1.8366,-1.8413,-1.848,-1.8483,-1.8394,-1.8394,-1.8394,0,-1.9478,-1.9367,-1.9316,-1.9276,-1.9144,-1.9121,-1.9065,-1.8973,-1.8927,-1.885,-1.8819,-1.8736,-1.8691,-1.8627,-1.8536,-1.8518,-1.8462,-1.8418,-1.842,-1.8422,-1.8413,-1.8415,-1.8475,-1.8388,-1.8388,-1.8388,-1.8388,0,-1.9524,-1.949,-1.9356,-1.9325,-1.9283,-1.9183,-1.9144,-1.9078,-1.8997,-1.8948,-1.8861,-1.8817,-1.8699,-1.864,-1.8567,-1.8509,-1.8489,-1.8448,-1.8429,-1.8456,-1.8461,-1.8428,-1.8424,-1.8388,-1.8388,-1.8388,-1.8388,0,-1.9621,-1.953,-1.9468,-1.9347,-1.9315,-1.929,-1.9185,-1.9148,-1.9076,-1.9016,-1.8996,-1.8882,-1.8807,-1.8709,-1.8603,-1.8554,-1.8504,-1.8475,-1.8536,-1.8525,-1.8532,-1.8532,-1.8572,-1.8571,-1.8487,-1.8488,-1.8488,0,-1.9656,-1.9628,-1.9504,-1.9466,-1.9413,-1.9353,-1.9305,-1.9204,-1.9158,-1.905,-1.9026,-1.8945,-1.8875,-1.8758,-1.8664,-1.8582,-1.855,-1.8569,-1.8537,-1.8563,-1.8548,-1.8551,-1.8547,-1.8578,-1.8579,-1.858,-1.8581,0,-1.9728,-1.9683,-1.9619,-1.9538,-1.9484,-1.9415,-1.9341,-1.9314,-1.9197,-1.9148,-1.9071,-1.9017,-1.8908,-1.8827,-1.8732,-1.8669,-1.8605,-1.8592,-1.8587,-1.8615,-1.8651,-1.863,-1.8558,-1.8592,-1.8591,-1.859,-1.8589,-1.8589,-1.9794,-1.9764,-1.9672,-1.9602,-1.9536,-1.9468,-1.9428,-1.935,-1.9285,-1.919,-1.9133,-1.9058,-1.8963,-1.8828,-1.8768,-1.8705,-1.8681,-1.8675,-1.8673,-1.8674,-1.8682,-1.8661,-1.8687,-1.8687,-1.8686,-1.8686,-1.8686,0,-1.9861,-1.9796,-1.9733,-1.9633,-1.9577,-1.9522,-1.9437,-1.9393,-1.9328,-1.9246,-1.9178,-1.9088,-1.9008,-1.8907,-1.8819,-1.8788,-1.8755,-1.8768,-1.8769,-1.8755,-1.8709,-1.8721,-1.8795,-1.8795,-1.8795,-1.8795,-1.8795,-1.8795,-1.9889,-1.9835,-1.9778,-1.9688,-1.9622,-1.9549,-1.9505,-1.944,-1.9374,-1.9278,-1.9212,-1.9146,-1.9055,-1.8959,-1.8882,-1.8854,-1.8825,-1.8846,-1.8809,-1.8768,-1.8759,-1.875,-1.876,-1.8841,-1.8841,-1.886,-1.886,-1.886]}]]